Regional Weather Roundup
Issued by NWS

Home | Current Version | Previous Version | Graphics & Text | Print | Product List | Glossary On
Versions: 1 2 3 4 5 6 7 8 9 10 11 12 13 14 15 16 17 18 19 20 21 22 23 24 25 26 27 28 29 30 31 32 33 34 35 36 37 38 39 40 41 42 43 44 45 46 47 48 49 50
000
ASUS45 KSLC 251210
RWRUT

UTAH REGIONAL WEATHER ROUNDUP
NATIONAL WEATHER SERVICE SALT LAKE CITY UT
500 AM MST SUN JAN 25 2015

UTZ001>011-023>025-251300-

NORTHERN UTAH

CITY           SKY/WX    TMP DP  RH WIND       PRES   REMARKS
BRIGHAM CITY   CLOUDY    33  29  85 N5        30.47S WCI  29
HILL AFB       CLOUDY    35  24  63 N2        30.45S
LOGAN          CLOUDY    32  30  92 CALM      30.47S FOG
OGDEN          CLOUDY    34  28  79 CALM      30.45S
PROVO AIRPORT  CLOUDY    32  27  80 CALM      30.46F
SALT LAKE CITY MOCLDY    35  29  78 NW3       30.45F
VERNAL         PTCLDY    18  12  77 CALM      30.38F
WENDOVER       CLEAR     25  19  80 CALM      30.46S
HEBER CITY     CLOUDY    30  27  86 N3        30.45S
WEST JORDAN    CLOUDY    36  27  69 CALM      30.45F

$$

UTZ012>022-026-027-251300-

SOUTHERN/CENTRAL UTAH

CITY           SKY/WX    TMP DP  RH WIND       PRES   REMARKS
BLANDING       CLEAR     31  20  63 NW3       30.34R
BRYCE CANYON   CLEAR     21  19  92 NW8       30.38R WCI  11
CEDAR CITY     PTCLDY    25  21  85 SE3       30.38F
DELTA          MOCLDY    30  27  86 SW5       30.43S WCI  26
MILFORD        CLEAR     30  23  75 NE7       30.40S WCI  23
MOAB/CYNLANDS  CLEAR     22  19  89 CALM      30.36S
PRICE          CLEAR     24  15  68 CALM      30.32F
ST GEORGE      MOSUNNY   37  21  52 CALM      30.32S
KANAB          CLEAR     32  23  69 NE6       30.36R WCI  26

$$

REGIONAL REPORTS     COLORADO/ARIZONA

CITY           SKY/WX    TMP DP  RH WIND       PRES   REMARKS
CRAIG, CO      PTCLDY    10   7  87 CALM      30.35S
GRAND JUNCTION PTCLDY    23  16  74 SE10      30.37F WCI  12
RIFLE          PTCLDY    22  15  75 CALM      30.40F
MONTROSE       PTCLDY    19  13  77 S6        30.40F WCI  11
CORTEZ         CLEAR     18  14  84 VRB3      30.29R
PAGE, AZ       NOT AVBL
GRAND CANYON   PTCLDY    23  16  74 VRB5      30.32S WCI  17
KINGMAN        CLEAR     38  20  48 E8        30.23F WCI  32
FLAGSTAFF      CLEAR     39  20  46 E10       30.28S WCI  32

$$

REGIONAL REPORTS    NEVADA/IDAHO/WYOMING

CITY           SKY/WX    TMP DP  RH WIND       PRES   REMARKS
LAS VEGAS, NV  CLEAR     47  23  38 SW9       30.22S
ELY            CLEAR     20  18  92 S8        30.43S WCI  10
ELKO           CLEAR     25  22  88 E5        30.44F WCI  19
POCATELLO, ID  CLOUDY    31  30  96 N3        30.44S
BURLEY         MOCLDY    30  27  88 NW3       30.41F
EVANSTON, WY   PTCLDY    30  27  88 S8        30.42R WCI  22
ROCK SPRINGS   PTCLDY    31  26  82 W24       30.32R WCI  17
KEMMERER       CLOUDY    32  30  93 W16       30.38S WCI  21

$$



USA.gov is the U.S. government's official web portal to all federal, state and local government web resources and services.